ARCCUBE 1 (RS25S)

Last updated on Tue Oct 14 2025 00:03:09 GMT+0000 (Coordinated Universal Time)

1 57205U 23091AR 25286.63942095 .00204407 00000+0 19187-2 0 9999 2 57205 97.5271 358.5934 0004721 211.9463 148.1512 15.66514877127731
UTC large
Height (km)
Speed (km/s)
/
Latitude / Longitude
Inclination (degrees)
Orbital Period (minutes)
Azimuth
Elevation
Range (km)
Doppler Factor

Next 0 passes for location: London (51.5072 / 0.1276)

Sorry there are no passes over London.